Weather in Ustinovo

Russia / Tver Oblast     57°04′56″N   37°19′11″E
temp.,
°C
wind,
m/s
gust,
m/s
humid.,
%
clouds,
%
prec.,
mm/h
press.,
hPa
HPBL,
m
27 june, mon
mon2700:00+20wsw22810 0.0 102043
03:00+19wnw25840 0.0 102073
06:00+21wnw27790 0.0 1020181
09:00+27nw36570 0.0 1019618
12:00+30nw46440 0.0 10191852
15:00+31nnw46330 0.0 10182357
18:00+29nne35487 0.0 10181002
21:00+24nw116532 0.0 101811
28 june, tue
tue2800:00+19ne23775 0.0 101969
03:00+16ne37915 0.0 1021170
06:00+17ne387316 0.0 1022302
09:00+19ne464619 0.0 1023742
12:00+21nne453628 0.0 10231170
15:00+21nne453780 0.0 10231272
18:00+20nne45435 0.0 10231017
21:00+13ne38708 0.0 1024156
29 june, wed
wed2900:00+11ene247255 0.0 102584
03:00+10e22840 0.0 102516
06:00+12e11750 0.0 102591
09:00+18e22460 0.0 1025848
12:00+21ene33350 0.0 10241703
15:00+22ene22340 0.0 10231839
18:00+21nne32420 0.0 10221325
21:00+14ne22715 0.0 102212
30 june, thu
thu3000:00+11ne11772 0.0 102210
03:00+10nw11795 0.0 102210
06:00+13nnw23705 0.0 102298
09:00+20nnw355124 0.0 1022687
12:00+23n463535 0.0 10211667
15:00+25n45355 0.0 10201712
18:00+23n244797 0.0 10201227
21:00+17ne22759 0.0 102015
1 july, fri
fri100:00+15n117278 0.0 102111
03:00+13nnw11762 0.0 102210
06:00+16nnw12723 0.0 102268
09:00+22nnw23500 0.0 1022547
12:00+26nnw34410 0.0 10221924
15:00+27n34360 0.0 10202159
18:00+26nne24489 0.0 10201590
21:00+20ssw00710 0.0 102011